Location: Opava
(49.9500°N, 17.9170°E)
Time: 00:34:08
(UTC+02:00)

ISS - Visible Passes

Search period start: 02 October 2020 00:00
Search period end: 12 October 2020 00:00
Orbit: 419 x 421 km, 51.6° (Epoch: 02 October)

Date Brightness Start Highest point End Pass type
(mag) Time Alt. Az. Time Alt. Az. Time Alt. Az.
02 Oct -2.7 20:19:48 10° W 20:22:55 35° SSW 20:23:18 34° SSW visible
03 Oct -3.1 19:32:26 10° WNW 19:35:43 50° SSW 19:37:58 18° SE visible
03 Oct -0.6 21:10:45 10° WSW 21:10:57 10° WSW 21:10:57 10° WSW visible
04 Oct -1.4 20:22:34 10° W 20:24:51 17° SW 20:25:41 16° SSW visible
05 Oct -1.8 19:34:54 10° W 19:37:43 25° SW 19:40:31 10° SSE visible
06 Oct -2.3 18:47:24 10° W 18:50:31 35° SSW 18:53:37 10° SE visible
07 Oct -0.7 19:38:23 10° WSW 19:39:28 11° SW 19:40:32 10° SSW visible
08 Oct -1.0 18:50:06 10° W 18:52:21 17° SW 18:54:36 10° S visible
